When you browse on this site, cookies collect data to enhance your experience and personalize the content and advertising you see.
Visit our Privacy Policy to learn more. By continuing to use the site, you agree to this use of cookies and data.

Previsão horária em Boroviki

Hoje, 27 Setembro, Domingo

Tempo Temperatura Precipitação Vento Pressão Humidade
00:00 +14°C° 0 mm 3 m/s 755 mmHg 78%
01:00 +14°C° 0 mm 3 m/s 756 mmHg 81%
02:00 +13°C° 0 mm 3 m/s 756 mmHg 81%
03:00 +13°C° 0 mm 3 m/s 756 mmHg 82%
04:00 +13°C° 0 mm 3 m/s 756 mmHg 83%
05:00 +12°C° 0 mm 3 m/s 756 mmHg 83%
06:00 +13°C° 0 mm 3 m/s 756 mmHg 81%
07:00 +14°C° 0 mm 4 m/s 756 mmHg 78%
08:00 +14°C° 0 mm 4 m/s 757 mmHg 73%
09:00 +17°C° 0 mm 4 m/s 757 mmHg 68%
10:00 +18°C° 0 mm 4 m/s 757 mmHg 62%
11:00 +20°C° 0 mm 4 m/s 757 mmHg 57%
12:00 +20°C° 0 mm 4 m/s 757 mmHg 55%
13:00 +21°C° 0 mm 5 m/s 757 mmHg 52%
14:00 +22°C° 0 mm 5 m/s 757 mmHg 50%
15:00 +21°C° 0 mm 4 m/s 757 mmHg 54%
16:00 +20°C° 0 mm 4 m/s 757 mmHg 58%
17:00 +19°C° 0 mm 3 m/s 757 mmHg 61%
18:00 +18°C° 0 mm 3 m/s 757 mmHg 63%
19:00 +17°C° 0 mm 4 m/s 757 mmHg 64%
20:00 +15°C° 0 mm 4 m/s 758 mmHg 65%
21:00 +14°C° 0 mm 3 m/s 758 mmHg 67%
22:00 +13°C° 0 mm 3 m/s 758 mmHg 70%
23:00 +12°C° 0 mm 3 m/s 758 mmHg 72%

Amanhã, 28 Setembro, Segunda-feira

Tempo Temperatura Precipitação Vento Pressão Humidade
00:00 +12°C° 0 mm 3 m/s 758 mmHg 74%
01:00 +11°C° 0 mm 3 m/s 758 mmHg 75%
02:00 +11°C° 0 mm 3 m/s 758 mmHg 77%
03:00 +11°C° 0 mm 3 m/s 758 mmHg 78%
04:00 +10°C° 0 mm 3 m/s 758 mmHg 79%
05:00 +10°C° 0 mm 3 m/s 758 mmHg 80%
06:00 +11°C° 0 mm 4 m/s 758 mmHg 81%
07:00 +11°C° 0 mm 4 m/s 758 mmHg 82%
08:00 +12°C° 0 mm 4 m/s 758 mmHg 83%
09:00 +12°C° 0.2 mm 4 m/s 758 mmHg 83%
10:00 +12°C° 0.2 mm 4 m/s 758 mmHg 84%
11:00 +12°C° 0.2 mm 4 m/s 758 mmHg 84%
12:00 +12°C° 0.1 mm 4 m/s 758 mmHg 83%
13:00 +12°C° 0.1 mm 4 m/s 758 mmHg 83%
14:00 +12°C° 0.1 mm 3 m/s 758 mmHg 82%
15:00 +13°C° 0 mm 3 m/s 758 mmHg 83%
16:00 +13°C° 0 mm 3 m/s 758 mmHg 83%
17:00 +14°C° 0 mm 3 m/s 758 mmHg 83%
18:00 +13°C° 0 mm 3 m/s 758 mmHg 85%
19:00 +13°C° 0 mm 3 m/s 758 mmHg 87%
20:00 +13°C° 0 mm 2 m/s 758 mmHg 89%
21:00 +13°C° 0 mm 2 m/s 758 mmHg 91%
22:00 +13°C° 0 mm 2 m/s 758 mmHg 93%
23:00 +12°C° 0 mm 2 m/s 758 mmHg 94%

Depois de amanhã, 29 Setembro, Terça-feira

Tempo Temperatura Precipitação Vento Pressão Humidade
00:00 +12°C° 0 mm 2 m/s 758 mmHg 95%
01:00 +12°C° 0 mm 2 m/s 758 mmHg 96%
02:00 +12°C° 0 mm 2 m/s 758 mmHg 96%
03:00 +12°C° 0.1 mm 2 m/s 758 mmHg 96%
04:00 +12°C° 0.1 mm 1 m/s 758 mmHg 96%
05:00 +12°C° 0.1 mm 1 m/s 758 mmHg 95%
06:00 +13°C° 0 mm 1 m/s 758 mmHg 94%
07:00 +13°C° 0 mm 2 m/s 758 mmHg 93%
08:00 +13°C° 0 mm 2 m/s 759 mmHg 92%
09:00 +13°C° 0 mm 2 m/s 759 mmHg 90%
10:00 +14°C° 0 mm 2 m/s 759 mmHg 88%
11:00 +14°C° 0 mm 2 m/s 759 mmHg 86%
12:00 +14°C° 0 mm 2 m/s 759 mmHg 86%
13:00 +15°C° 0 mm 2 m/s 759 mmHg 86%
14:00 +15°C° 0 mm 2 m/s 759 mmHg 86%
15:00 +15°C° 0 mm 2 m/s 759 mmHg 87%
16:00 +15°C° 0 mm 2 m/s 759 mmHg 87%
17:00 +15°C° 0 mm 2 m/s 759 mmHg 88%
18:00 +14°C° 0 mm 2 m/s 759 mmHg 90%
19:00 +13°C° 0 mm 2 m/s 759 mmHg 91%
20:00 +12°C° 0 mm 1 m/s 759 mmHg 92%
21:00 +12°C° 0 mm 1 m/s 759 mmHg 93%
22:00 +11°C° 0 mm 1 m/s 759 mmHg 93%
23:00 +11°C° 0 mm 1 m/s 759 mmHg 93%

30 Setembro, Quarta-feira

Tempo Temperatura Precipitação Vento Pressão Humidade
00:00 +11°C° 0 mm 1 m/s 759 mmHg 93%
01:00 +10°C° 0 mm 1 m/s 759 mmHg 94%
02:00 +10°C° 0 mm 1 m/s 759 mmHg 95%
03:00 +10°C° 0 mm 1 m/s 759 mmHg 95%
04:00 +10°C° 0 mm 1 m/s 759 mmHg 96%
05:00 +9°C° 0 mm 1 m/s 759 mmHg 96%
06:00 +10°C° 0 mm 1 m/s 759 mmHg 94%
07:00 +11°C° 0 mm 1 m/s 759 mmHg 92%
08:00 +11°C° 0 mm 1 m/s 759 mmHg 90%
09:00 +13°C° 0 mm 2 m/s 759 mmHg 84%
10:00 +15°C° 0 mm 2 m/s 759 mmHg 78%
11:00 +16°C° 0 mm 2 m/s 759 mmHg 71%
12:00 +17°C° 0 mm 2 m/s 759 mmHg 68%
13:00 +18°C° 0 mm 2 m/s 758 mmHg 64%
14:00 +19°C° 0 mm 2 m/s 758 mmHg 61%
15:00 +18°C° 0 mm 2 m/s 758 mmHg 65%
16:00 +17°C° 0 mm 2 m/s 758 mmHg 70%
17:00 +16°C° 0 mm 2 m/s 758 mmHg 74%
18:00 +15°C° 0 mm 2 m/s 758 mmHg 78%
19:00 +14°C° 0 mm 2 m/s 758 mmHg 81%
20:00 +13°C° 0 mm 2 m/s 759 mmHg 84%
21:00 +13°C° 0 mm 2 m/s 759 mmHg 82%
22:00 +12°C° 0 mm 2 m/s 759 mmHg 80%
23:00 +12°C° 0 mm 2 m/s 758 mmHg 78%

1 Outubro, Quinta-feira

Tempo Temperatura Precipitação Vento Pressão Humidade
00:00 +10°C° 0 mm 2 m/s 758 mmHg 81%
01:00 +9°C° 0 mm 2 m/s 758 mmHg 84%
02:00 +9°C° 0 mm 2 m/s 758 mmHg 86%
03:00 +8°C° 0 mm 2 m/s 758 mmHg 88%
04:00 +8°C° 0 mm 2 m/s 758 mmHg 90%
05:00 +7°C° 0 mm 2 m/s 758 mmHg 91%
06:00 +8°C° 0 mm 2 m/s 758 mmHg 86%
07:00 +8°C° 0 mm 2 m/s 758 mmHg 81%
08:00 +9°C° 0 mm 2 m/s 758 mmHg 76%
09:00 +11°C° 0 mm 3 m/s 758 mmHg 69%
10:00 +12°C° 0 mm 3 m/s 758 mmHg 63%
11:00 +14°C° 0 mm 3 m/s 758 mmHg 56%
12:00 +16°C° 0 mm 3 m/s 758 mmHg 54%
13:00 +17°C° 0 mm 3 m/s 758 mmHg 52%
14:00 +18°C° 0 mm 4 m/s 757 mmHg 50%
15:00 +17°C° 0 mm 3 m/s 757 mmHg 56%
16:00 +16°C° 0 mm 3 m/s 757 mmHg 62%
17:00 +14°C° 0 mm 3 m/s 757 mmHg 67%
18:00 +13°C° 0 mm 3 m/s 757 mmHg 71%
19:00 +12°C° 0 mm 3 m/s 758 mmHg 74%
20:00 +11°C° 0 mm 3 m/s 758 mmHg 77%
21:00 +10°C° 0 mm 3 m/s 758 mmHg 78%
22:00 +10°C° 0 mm 3 m/s 758 mmHg 79%
23:00 +10°C° 0 mm 3 m/s 758 mmHg 80%

2 Outubro, Sexta-feira

Tempo Temperatura Precipitação Vento Pressão Humidade
00:00 +10°C° 0 mm 3 m/s 758 mmHg 80%
01:00 +10°C° 0 mm 3 m/s 758 mmHg 80%
02:00 +9°C° 0 mm 3 m/s 758 mmHg 80%
03:00 +10°C° 0 mm 3 m/s 758 mmHg 78%
04:00 +10°C° 0 mm 3 m/s 758 mmHg 76%
05:00 +10°C° 0 mm 3 m/s 758 mmHg 74%
06:00 +10°C° 0 mm 3 m/s 758 mmHg 72%
07:00 +11°C° 0 mm 3 m/s 758 mmHg 70%
08:00 +11°C° 0 mm 3 m/s 758 mmHg 68%
09:00 +12°C° 0 mm 4 m/s 758 mmHg 66%
10:00 +13°C° 0 mm 4 m/s 758 mmHg 63%
11:00 +14°C° 0 mm 4 m/s 758 mmHg 61%
12:00 +14°C° 0 mm 4 m/s 758 mmHg 60%
13:00 +15°C° 0 mm 4 m/s 758 mmHg 59%
14:00 +15°C° 0 mm 4 m/s 758 mmHg 58%
15:00 +15°C° 0 mm 4 m/s 759 mmHg 61%
16:00 +14°C° 0 mm 3 m/s 759 mmHg 64%
17:00 +14°C° 0 mm 3 m/s 759 mmHg 67%
18:00 +13°C° 0 mm 3 m/s 759 mmHg 69%
19:00 +13°C° 0 mm 3 m/s 760 mmHg 71%
20:00 +12°C° 0 mm 3 m/s 760 mmHg 72%
21:00 +12°C° 0 mm 3 m/s 760 mmHg 74%
22:00 +11°C° 0 mm 3 m/s 760 mmHg 75%
23:00 +11°C° 0 mm 3 m/s 760 mmHg 76%
Mostrar mais